| time (UTC) | temp F | wind direction | speed knots | gust knots | rain 1hr in | rain 24hr in | rain mn in | humidity % | barometer mb |
| 20260504130108 | 72 | 335 | 7.8 | 0.0 | 0.00 | 0.00 | 0.00 | 54 | 1012.0 |
| 20260504120143 | 72 | 294 | 3.5 | 0.0 | 0.00 | 0.00 | 0.00 | 54 | 1012.1 |
| 20260504110609 | 73 | 335 | 6.1 | 0.0 | 0.00 | 0.00 | 0.00 | 51 | 1011.9 |
| 20260504110133 | 72 | 253 | 1.7 | 0.0 | 0.00 | 0.00 | 0.00 | 53 | 1011.9 |
| 20260504100125 | 70 | 331 | 5.2 | 0.0 | 0.00 | 0.00 | 0.00 | 58 | 1012.5 |
| 20260504090118 | 68 | 251 | 7.0 | 0.0 | 0.00 | 0.00 | 0.00 | 60 | 1012.1 |
| 20260504081623 | 67 | 284 | 4.3 | 0.0 | 0.00 | 0.00 | 0.00 | 62 | 1011.9 |
| 20260504081103 | 67 | 262 | 6.1 | 0.0 | 0.00 | 0.00 | 0.00 | 62 | 1011.9 |
| 20260504080629 | 67 | 263 | 6.1 | 0.0 | 0.00 | 0.00 | 0.00 | 62 | 1011.9 |
| 20260504080109 | 67 | 257 | 6.1 | 0.0 | 0.00 | 0.00 | 0.00 | 62 | 1012.0 |
| 20260504060137 | 65 | 257 | 7.0 | 0.0 | 0.00 | 0.00 | 0.00 | 50 | 1011.1 |
| 20260504050603 | 65 | 287 | 5.2 | 0.0 | 0.00 | 0.00 | 0.00 | 47 | 1011.0 |
| 20260504050129 | 65 | 253 | 6.1 | 0.0 | 0.00 | 0.00 | 0.00 | 47 | 1010.9 |
| 20260504045609 | 65 | 261 | 7.0 | 0.0 | 0.00 | 0.00 | 0.00 | 46 | 1010.7 |
| 20260504045135 | 64 | 261 | 5.2 | 0.0 | 0.00 | 0.00 | 0.00 | 46 | 1010.7 |
| 20260504044615 | 64 | 268 | 5.2 | 0.0 | 0.00 | 0.00 | 0.00 | 47 | 1010.7 |
| 20260504044141 | 62 | 265 | 7.0 | 0.0 | 0.00 | 0.00 | 0.00 | 49 | 1010.8 |
| 20260504043621 | 62 | 266 | 5.2 | 0.0 | 0.00 | 0.00 | 0.00 | 49 | 1010.8 |
| 20260504043102 | 61 | 273 | 5.2 | 0.0 | 0.00 | 0.00 | 0.00 | 50 | 1010.9 |
| 20260504042628 | 61 | 258 | 6.1 | 0.0 | 0.00 | 0.00 | 0.00 | 50 | 1010.9 |
| 20260504042109 | 60 | 249 | 7.8 | 0.0 | 0.00 | 0.00 | 0.00 | 50 | 1010.9 |
| 20260504041634 | 60 | 270 | 7.8 | 0.0 | 0.00 | 0.00 | 0.00 | 51 | 1010.8 |
| 20260504041115 | 60 | 248 | 5.2 | 0.0 | 0.00 | 0.00 | 0.00 | 50 | 1010.8 |
| 20260504040640 | 60 | 242 | 8.7 | 0.0 | 0.00 | 0.00 | 0.00 | 50 | 1010.8 |
| 20260504040120 | 60 | 245 | 4.3 | 0.0 | 0.00 | 0.00 | 0.00 | 50 | 1010.7 |
| 20260504035601 | 60 | 250 | 6.1 | 0.0 | 0.00 | 0.00 | 0.00 | 50 | 1010.7 |
| 20260504035127 | 60 | 274 | 7.0 | 0.0 | 0.00 | 0.00 | 0.00 | 50 | 1010.7 |
| 20260504034607 | 61 | 244 | 6.1 | 0.0 | 0.00 | 0.00 | 0.00 | 49 | 1010.7 |
| 20260504034134 | 60 | 254 | 4.3 | 0.0 | 0.00 | 0.00 | 0.00 | 49 | 1010.8 |
| 20260504033614 | 60 | 244 | 5.2 | 0.0 | 0.00 | 0.00 | 0.00 | 49 | 1010.8 |
| 20260504033140 | 60 | 238 | 5.2 | 0.0 | 0.00 | 0.00 | 0.00 | 49 | 1010.7 |
| 20260504032620 | 60 | 243 | 7.0 | 0.0 | 0.00 | 0.00 | 0.00 | 49 | 1010.7 |
| 20260504032146 | 60 | 228 | 7.0 | 0.0 | 0.00 | 0.00 | 0.00 | 49 | 1010.8 |
| 20260504031627 | 60 | 241 | 6.1 | 0.0 | 0.00 | 0.00 | 0.00 | 49 | 1010.8 |
| 20260504031106 | 60 | 252 | 6.1 | 0.0 | 0.00 | 0.00 | 0.00 | 49 | 1010.8 |
| 20260504030633 | 60 | 249 | 7.0 | 0.0 | 0.00 | 0.00 | 0.00 | 50 | 1010.9 |
| 20260504030113 | 60 | 237 | 4.3 | 0.0 | 0.00 | 0.00 | 0.00 | 49 | 1010.8 |
| 20260504025639 | 61 | 264 | 5.2 | 0.0 | 0.00 | 0.00 | 0.00 | 49 | 1010.7 |
| 20260504025119 | 61 | 247 | 7.8 | 0.0 | 0.00 | 0.00 | 0.00 | 49 | 1010.8 |
| 20260504024645 | 60 | 257 | 6.1 | 0.0 | 0.00 | 0.00 | 0.00 | 49 | 1010.7 |
| 20260504024125 | 60 | 262 | 5.2 | 0.0 | 0.00 | 0.00 | 0.00 | 50 | 1010.8 |
| 20260504023606 | 60 | 237 | 4.3 | 0.0 | 0.00 | 0.00 | 0.00 | 51 | 1010.8 |
| 20260504023132 | 60 | 268 | 6.1 | 0.0 | 0.00 | 0.00 | 0.00 | 51 | 1010.9 |
| 20260504022612 | 59 | 228 | 5.2 | 0.0 | 0.00 | 0.00 | 0.00 | 52 | 1011.0 |
| 20260504022138 | 60 | 257 | 7.8 | 0.0 | 0.00 | 0.00 | 0.00 | 51 | 1010.9 |
| 20260504021618 | 60 | 271 | 7.8 | 0.0 | 0.00 | 0.00 | 0.00 | 50 | 1010.9 |
| 20260504021145 | 62 | 264 | 9.6 | 0.0 | 0.00 | 0.00 | 0.00 | 44 | 1010.7 |
| 20260504020625 | 62 | 220 | 4.3 | 0.0 | 0.00 | 0.00 | 0.00 | 44 | 1010.7 |
| 20260504020105 | 62 | 223 | 4.3 | 0.0 | 0.00 | 0.00 | 0.00 | 44 | 1010.6 |
| 20260504015631 | 62 | 202 | 4.3 | 0.0 | 0.00 | 0.00 | 0.00 | 45 | 1010.6 |
| 20260504015111 | 62 | 194 | 5.2 | 0.0 | 0.00 | 0.00 | 0.00 | 45 | 1010.6 |
| 20260504014638 | 62 | 206 | 6.1 | 0.0 | 0.00 | 0.00 | 0.00 | 45 | 1010.6 |
| 20260504014117 | 62 | 201 | 3.5 | 0.0 | 0.00 | 0.00 | 0.00 | 45 | 1010.6 |
| 20260504013644 | 62 | 197 | 3.5 | 0.0 | 0.00 | 0.00 | 0.00 | 45 | 1010.7 |
| 20260504013124 | 62 | 186 | 4.3 | 0.0 | 0.00 | 0.00 | 0.00 | 45 | 1010.8 |
| 20260504012605 | 62 | 211 | 3.5 | 0.0 | 0.00 | 0.00 | 0.00 | 45 | 1010.9 |
| 20260504012130 | 62 | 193 | 3.5 | 0.0 | 0.00 | 0.00 | 0.00 | 45 | 1010.9 |
| 20260504011611 | 62 | 202 | 3.5 | 0.0 | 0.00 | 0.00 | 0.00 | 46 | 1010.9 |
| 20260504011136 | 62 | 195 | 2.6 | 0.0 | 0.00 | 0.00 | 0.00 | 47 | 1011.1 |
| 20260504010616 | 62 | 204 | 2.6 | 0.0 | 0.00 | 0.00 | 0.00 | 47 | 1011.1 |
| 20260504010144 | 62 | 210 | 2.6 | 0.0 | 0.00 | 0.00 | 0.00 | 47 | 1011.2 |
| 20260504005623 | 62 | 208 | 1.7 | 0.0 | 0.00 | 0.00 | 0.00 | 48 | 1011.3 |
| 20260504005104 | 62 | 202 | 1.7 | 0.0 | 0.00 | 0.00 | 0.00 | 48 | 1011.3 |
| 20260504004630 | 62 | 200 | 2.6 | 0.0 | 0.00 | 0.00 | 0.00 | 49 | 1011.4 |
| 20260504004109 | 62 | 191 | 2.6 | 0.0 | 0.00 | 0.00 | 0.00 | 50 | 1011.4 |
| 20260504003636 | 62 | 184 | 2.6 | 0.0 | 0.00 | 0.00 | 0.00 | 50 | 1011.4 |
| 20260504003117 | 62 | 178 | 3.5 | 0.0 | 0.00 | 0.00 | 0.00 | 51 | 1011.5 |
| 20260504002642 | 61 | 175 | 3.5 | 0.0 | 0.00 | 0.00 | 0.00 | 52 | 1011.6 |
| 20260504002123 | 61 | 174 | 3.5 | 0.0 | 0.00 | 0.00 | 0.00 | 54 | 1011.6 |
| 20260504001603 | 60 | 176 | 3.5 | 0.0 | 0.00 | 0.00 | 0.00 | 56 | 1011.6 |
| 20260504001129 | 60 | 171 | 2.6 | 0.0 | 0.00 | 0.00 | 0.00 | 58 | 1011.7 |
| 20260504000610 | 60 | 182 | 1.7 | 0.0 | 0.00 | 0.00 | 0.00 | 58 | 1011.7 |
| 20260504000135 | 60 | 183 | 2.6 | 0.0 | 0.00 | 0.00 | 0.00 | 58 | 1011.7 |
| 20260503235615 | 60 | 207 | 0.9 | 0.0 | 0.00 | 0.00 | 0.00 | 59 | 1011.8 |
| 20260503235142 | 59 | 232 | 1.7 | 0.0 | 0.00 | 0.00 | 0.00 | 60 | 1011.8 |
| 20260503234623 | 60 | 217 | 0.9 | 0.0 | 0.00 | 0.00 | 0.00 | 60 | 1011.9 |
| 20260503234103 | 60 | 154 | 0.9 | 0.0 | 0.00 | 0.00 | 0.00 | 59 | 1011.9 |
| 20260503233629 | 60 | 251 | 0.9 | 0.0 | 0.00 | 0.00 | 0.00 | 60 | 1012.0 |
| 20260503232634 | 61 | 262 | 1.7 | 0.0 | 0.00 | 0.00 | 0.00 | 57 | 1012.2 |
| 20260503232115 | 61 | 254 | 1.7 | 0.0 | 0.00 | 0.00 | 0.00 | 58 | 1012.2 |
| 20260503231640 | 62 | 285 | 1.7 | 0.0 | 0.00 | 0.00 | 0.00 | 55 | 1012.3 |
| 20260503231122 | 62 | 228 | 1.7 | 0.0 | 0.00 | 0.00 | 0.00 | 54 | 1012.3 |
| 20260503230602 | 62 | 276 | 0.9 | 0.0 | 0.00 | 0.00 | 0.00 | 55 | 1012.3 |
| 20260503230127 | 62 | 257 | 1.7 | 0.0 | 0.00 | 0.00 | 0.00 | 53 | 1012.5 |
| 20260503225608 | 62 | 187 | 1.7 | 0.0 | 0.00 | 0.00 | 0.00 | 53 | 1012.5 |
| 20260503225133 | 62 | 228 | 1.7 | 0.0 | 0.00 | 0.00 | 0.00 | 54 | 1012.5 |
| 20260503224614 | 62 | 261 | 1.7 | 0.0 | 0.00 | 0.00 | 0.00 | 55 | 1012.5 |
| 20260503224140 | 62 | 247 | 0.9 | 0.0 | 0.00 | 0.00 | 0.00 | 54 | 1012.6 |
| 20260503223620 | 62 | 236 | 2.6 | 0.0 | 0.00 | 0.00 | 0.00 | 56 | 1012.6 |
| 20260503223101 | 62 | 179 | 0.9 | 0.0 | 0.00 | 0.00 | 0.00 | 57 | 1012.6 |
| 20260503222626 | 62 | 178 | 1.7 | 0.0 | 0.00 | 0.00 | 0.00 | 55 | 1012.6 |
| 20260503222107 | 62 | 244 | 1.7 | 0.0 | 0.00 | 0.00 | 0.00 | 56 | 1012.8 |
| 20260503221633 | 62 | 313 | 2.6 | 0.0 | 0.00 | 0.00 | 0.00 | 57 | 1012.8 |
| 20260503221113 | 62 | 263 | 0.9 | 0.0 | 0.00 | 0.00 | 0.00 | 56 | 1012.9 |
| 20260503220640 | 62 | 150 | 0.9 | 0.0 | 0.00 | 0.00 | 0.00 | 56 | 1012.8 |
| 20260503220120 | 62 | 167 | 0.9 | 0.0 | 0.00 | 0.00 | 0.00 | 57 | 1013.0 |
| 20260503215646 | 62 | 127 | 1.7 | 0.0 | 0.00 | 0.00 | 0.00 | 57 | 1013.0 |
| 20260503215126 | 61 | 3 | 3.5 | 0.0 | 0.00 | 0.00 | 0.00 | 57 | 1013.1 |
| 20260503214606 | 61 | 344 | 1.7 | 0.0 | 0.00 | 0.00 | 0.00 | 57 | 1013.1 |
| 20260503214132 | 62 | 168 | 2.6 | 0.0 | 0.00 | 0.00 | 0.00 | 55 | 1013.0 |
| 20260503213613 | 63 | 199 | 2.6 | 0.0 | 0.00 | 0.00 | 0.00 | 54 | 1013.0 |
| 20260503213139 | 63 | 294 | 3.5 | 0.0 | 0.00 | 0.00 | 0.00 | 53 | 1013.1 |
| 20260503212620 | 62 | 321 | 3.5 | 0.0 | 0.00 | 0.00 | 0.00 | 54 | 1013.2 |
| 20260503212145 | 62 | 302 | 1.7 | 0.0 | 0.00 | 0.00 | 0.00 | 53 | 1013.2 |
| 20260503211627 | 63 | 170 | 2.6 | 0.0 | 0.00 | 0.00 | 0.00 | 52 | 1013.2 |
| 20260503211106 | 63 | 190 | 1.7 | 0.0 | 0.00 | 0.00 | 0.00 | 51 | 1013.3 |
| 20260503210631 | 64 | 247 | 1.7 | 0.0 | 0.00 | 0.00 | 0.00 | 51 | 1013.4 |
| 20260503210112 | 64 | 195 | 0.9 | 0.0 | 0.00 | 0.00 | 0.00 | 51 | 1013.4 |
| 20260503205638 | 63 | 291 | 2.6 | 0.0 | 0.00 | 0.00 | 0.00 | 51 | 1013.4 |
| 20260503205118 | 62 | 314 | 7.8 | 0.0 | 0.00 | 0.00 | 0.00 | 54 | 1013.7 |
| 20260503204644 | 63 | 319 | 4.3 | 0.0 | 0.00 | 0.00 | 0.00 | 52 | 1013.3 |
| 20260503204125 | 63 | 309 | 2.6 | 0.0 | 0.00 | 0.00 | 0.00 | 52 | 1013.3 |
| 20260503203605 | 63 | 235 | 0.9 | 0.0 | 0.00 | 0.00 | 0.00 | 51 | 1013.2 |
| 20260503203131 | 63 | 240 | 0.9 | 0.0 | 0.00 | 0.00 | 0.00 | 50 | 1013.3 |
| 20260503202611 | 63 | 268 | 0.9 | 0.0 | 0.00 | 0.00 | 0.00 | 50 | 1013.3 |
| 20260503202138 | 63 | 247 | 0.9 | 0.0 | 0.00 | 0.00 | 0.00 | 50 | 1013.2 |
| 20260503201618 | 63 | 221 | 0.9 | 0.0 | 0.00 | 0.00 | 0.00 | 50 | 1013.1 |
| 20260503201143 | 64 | 287 | 1.7 | 0.0 | 0.00 | 0.00 | 0.00 | 50 | 1013.2 |
| 20260503200624 | 63 | 271 | 1.7 | 0.0 | 0.00 | 0.00 | 0.00 | 49 | 1013.2 |
| 20260503200106 | 63 | 268 | 0.9 | 0.0 | 0.00 | 0.00 | 0.00 | 50 | 1013.2 |
| 20260503195631 | 64 | 255 | 1.7 | 0.0 | 0.00 | 0.00 | 0.00 | 49 | 1013.2 |
| 20260503195110 | 64 | 262 | 1.7 | 0.0 | 0.00 | 0.00 | 0.00 | 50 | 1013.2 |
| 20260503194637 | 64 | 204 | 0.9 | 0.0 | 0.00 | 0.00 | 0.00 | 48 | 1013.2 |
| 20260503194117 | 64 | 300 | 0.9 | 0.0 | 0.00 | 0.00 | 0.00 | 49 | 1013.2 |
| 20260503193643 | 64 | 311 | 1.7 | 0.0 | 0.00 | 0.00 | 0.00 | 48 | 1013.2 |
| 20260503193123 | 65 | 312 | 1.7 | 0.0 | 0.00 | 0.00 | 0.00 | 47 | 1013.2 |
| 20260503192603 | 65 | 304 | 1.7 | 0.0 | 0.00 | 0.00 | 0.00 | 47 | 1013.2 |
| 20260503192128 | 65 | 316 | 2.6 | 0.0 | 0.00 | 0.00 | 0.00 | 46 | 1013.2 |
| 20260503191609 | 66 | 310 | 1.7 | 0.0 | 0.00 | 0.00 | 0.00 | 45 | 1013.2 |
| 20260503191135 | 66 | 305 | 0.9 | 0.0 | 0.00 | 0.00 | 0.00 | 45 | 1013.2 |
| 20260503190615 | 66 | 306 | 1.7 | 0.0 | 0.00 | 0.00 | 0.00 | 44 | 1013.2 |
| 20260503190142 | 66 | 274 | 1.7 | 0.0 | 0.00 | 0.00 | 0.00 | 44 | 1013.1 |
| 20260503185622 | 67 | 290 | 1.7 | 0.0 | 0.00 | 0.00 | 0.00 | 43 | 1013.2 |
| 20260503185102 | 67 | 278 | 1.7 | 0.0 | 0.00 | 0.00 | 0.00 | 42 | 1013.1 |
| 20260503184628 | 67 | 281 | 0.9 | 0.0 | 0.00 | 0.00 | 0.00 | 41 | 1013.1 |
| 20260503184109 | 68 | 292 | 0.9 | 0.0 | 0.00 | 0.00 | 0.00 | 41 | 1013.0 |
| 20260503183637 | 68 | 230 | 0.9 | 0.0 | 0.00 | 0.00 | 0.00 | 39 | 1012.9 |
| 20260503183116 | 68 | 279 | 0.9 | 0.0 | 0.00 | 0.00 | 0.00 | 39 | 1012.9 |
| 20260503182641 | 69 | 243 | 0.9 | 0.0 | 0.00 | 0.00 | 0.00 | 38 | 1012.9 |
| 20260503182122 | 69 | 208 | 0.9 | 0.0 | 0.00 | 0.00 | 0.00 | 37 | 1012.9 |
| 20260503181602 | 70 | 177 | 0.9 | 0.0 | 0.00 | 0.00 | 0.00 | 36 | 1012.9 |
| 20260503181128 | 70 | 167 | 0.9 | 0.0 | 0.00 | 0.00 | 0.00 | 35 | 1012.8 |
| 20260503180608 | 71 | 132 | 0.9 | 0.0 | 0.00 | 0.00 | 0.00 | 34 | 1012.7 |
| 20260503180134 | 72 | 7 | 1.7 | 0.0 | 0.00 | 0.00 | 0.00 | 34 | 1012.7 |
| 20260503175615 | 73 | 30 | 1.7 | 0.0 | 0.00 | 0.00 | 0.00 | 32 | 1012.7 |
| 20260503175140 | 73 | 120 | 0.9 | 0.0 | 0.00 | 0.00 | 0.00 | 32 | 1012.6 |
| 20260503174621 | 74 | 106 | 0.9 | 0.0 | 0.00 | 0.00 | 0.00 | 31 | 1012.6 |
| 20260503174101 | 74 | 7 | 0.9 | 0.0 | 0.00 | 0.00 | 0.00 | 31 | 1012.6 |
| 20260503173627 | 74 | 316 | 0.9 | 0.0 | 0.00 | 0.00 | 0.00 | 32 | 1012.6 |
| 20260503173107 | 74 | 346 | 1.7 | 0.0 | 0.00 | 0.00 | 0.00 | 31 | 1012.6 |
| 20260503172632 | 74 | 1 | 3.5 | 0.0 | 0.00 | 0.00 | 0.00 | 31 | 1012.5 |
| 20260503172113 | 74 | 6 | 0.9 | 0.0 | 0.00 | 0.00 | 0.00 | 31 | 1012.5 |
| 20260503171639 | 76 | 21 | 3.5 | 0.0 | 0.00 | 0.00 | 0.00 | 29 | 1012.5 |
| 20260503171119 | 76 | 36 | 2.6 | 0.0 | 0.00 | 0.00 | 0.00 | 29 | 1012.6 |
| 20260503170644 | 78 | 56 | 1.7 | 0.0 | 0.00 | 0.00 | 0.00 | 28 | 1012.5 |
| 20260503170125 | 77 | 71 | 0.9 | 0.0 | 0.00 | 0.00 | 0.00 | 29 | 1012.6 |
| 20260503160116 | 78 | 34 | 2.6 | 0.0 | 0.00 | 0.00 | 0.00 | 27 | 1012.7 |
| 20260503150623 | 76 | 67 | 4.3 | 0.0 | 0.00 | 0.00 | 0.00 | 27 | 1012.5 |
| 20260503150104 | 77 | 0 | 4.3 | 0.0 | 0.00 | 0.00 | 0.00 | 26 | 1012.7 |
| 20260503140141 | 86 | 262 | 4.3 | 0.0 | 0.00 | 0.00 | 0.00 | 15 | 1012.9 |
| 20260503131127 | 84 | 202 | 6.1 | 0.0 | 0.00 | 0.00 | 0.00 | 16 | 1013.3 |
| 20260503130607 | 83 | 217 | 2.6 | 0.0 | 0.00 | 0.00 | 0.00 | 17 | 1013.3 |